This is the latest recevied weather packets stored in our database for station/object KB4RFE. If no packets are shown the sender has not sent any weather packets the latest 10 day(s).
| Time | Temp. | Humidity | Pressure | Rain* | Wind** | Luminosity | Snow |
|---|---|---|---|---|---|---|---|
| 1778013609 | 23.89° C | 60% | 1019.7 hPa | 0 mm | - | 623 W/m² | - |
| 1778013305 | 23.89° C | 58% | 1019.6 hPa | 0 mm | - | 661 W/m² | - |
| 1778013002 | 23.89° C | 58% | 1019.7 hPa | 0 mm | - | 598 W/m² | - |
| 1778012699 | 24.44° C | 60% | 1019.8 hPa | 0 mm | - | 653 W/m² | - |
| 1778012395 | 24.44° C | 61% | 1019.5 hPa | 0 mm | - | 657 W/m² | - |
| 1778012092 | 24.44° C | 57% | 1019.8 hPa | 0 mm | - | 657 W/m² | - |
| 1778011790 | 23.89° C | 59% | 1019.8 hPa | 0 mm | - | 700 W/m² | - |
| 1778011488 | 24.44° C | 56% | 1020.1 hPa | 0 mm | - | 460 W/m² | - |
| 1778011183 | 24.44° C | 56% | 1020 hPa | 0 mm | - | 651 W/m² | - |
| 1778010881 | 24.44° C | 56% | 1020.3 hPa | 0 mm | - | 644 W/m² | - |
| 1778010578 | 24.44° C | 58% | 1020.2 hPa | 0 mm | - | 754 W/m² | - |
| 1778010274 | 25° C | 58% | 1020.3 hPa | 0 mm | - | 770 W/m² | - |
| 1778009974 | 24.44° C | 56% | 1020.5 hPa | 0 mm | - | 780 W/m² | - |
| 1778009672 | 24.44° C | 58% | 1020.6 hPa | 0 mm | - | 509 W/m² | - |
| 1778009370 | 24.44° C | 57% | 1020.7 hPa | 0 mm | - | 820 W/m² | - |
| 1778009068 | 25° C | 55% | 1020.8 hPa | 0 mm | - | 822 W/m² | - |
| 1778008765 | 24.44° C | 57% | 1021 hPa | 0 mm | - | 944 W/m² | - |
| 1778008464 | 24.44° C | 55% | 1021.1 hPa | 0 mm | - | 994 W/m² | - |
| 1778008160 | 24.44° C | 56% | 1020.9 hPa | 0 mm | - | 591 W/m² | - |
| 1778007855 | 25° C | 56% | 1021 hPa | 0 mm | - | 359 W/m² | - |
| 1778007551 | 25° C | 57% | 1020.9 hPa | 0 mm | - | 891 W/m² | - |
| 1778007248 | 24.44° C | 57% | 1020.8 hPa | 0 mm | - | 881 W/m² | - |
| 1778006944 | 24.44° C | 57% | 1020.8 hPa | 0 mm | - | 884 W/m² | - |
| 1778006641 | 24.44° C | 56% | 1021 hPa | 0 mm | - | 895 W/m² | - |
| 1778006338 | 25° C | 55% | 1020.7 hPa | 0 mm | - | 901 W/m² | - |
* Rain latest hour (hover to see other rain measurements)
** Current wind speed in m/s (hover to see current wind gust speed)